Regional Weather Roundup
Issued by NWS Albany, NY

Home | Current Version | Previous Version | Graphics & Text | Print | Product List | Glossary On
Versions: 1 2 3 4 5 6 7 8 9 10 11 12 13 14 15 16 17 18 19 20 21 22 23 24 25 26 27 28 29 30 31 32 33 34 35 36 37 38 39 40 41 42 43 44 45 46 47 48 49 50
000
ASUS41 KALY 192010
RWRALY

NEW YORK STATE HOURLY WEATHER ROUNDUP
NATIONAL WEATHER SERVICE ALBANY NY
400 PM EDT TUE AUG 19 2014

NOTE: "FAIR" INDICATES FEW OR NO CLOUDS BELOW 12,000 FEET WITH NO
SIGNIFICANT WEATHER AND/OR NO OBSTRUCTIONS TO VISIBILITY.

NYZ032-033-038>043-046>054-057>066-NYZ062>081-192100-
EAST


CITY           SKY/WX    TMP DP  RH WIND       PRES   REMARKS
ALBANY         MOSUNNY   78  50  37 CALM      29.90F
GLENS FALLS    SUNNY     75  50  41 NW5       29.91S
POUGHKEEPSIE   SUNNY     80  53  39 NE6       29.89S
NEWBURGH       SUNNY     81  54  39 CALM      29.92S
MONTGOMERY     SUNNY     82  53  36 CALM      29.89S
WHITE PLAINS   MOSUNNY   77  55  46 CALM      29.91R
ISLIP          MOSUNNY   75  64  68 SE12      29.90R
NEW YORK CITY  PTSUNNY   79  61  53 VRB5      29.89S
CENTRAL PARK   MOSUNNY   80  63  55 CALM      29.92S
$$

NYZ005>009-017-018-044>046-055-056-192100-
CENTRAL


CITY           SKY/WX    TMP DP  RH WIND       PRES   REMARKS
FULTON         MOSUNNY   78  59  51 VRB3      29.87S
SYRACUSE       PTSUNNY   79  61  53 NE9       29.86S
ROME           SUNNY     78  58  49 VRB5      29.89S
ELMIRA         CLOUDY    78  67  68 SW7       29.86S
BINGHAMTON     MOSUNNY   76  60  57 S8        29.91S
MONTICELLO     SUNNY     75  55  50 CALM      29.94F
$$

NYZ026>034-041>043-192100-
NORTH


CITY           SKY/WX    TMP DP  RH WIND       PRES   REMARKS
WATERTOWN      SUNNY     78  51  38 NW7       29.87F
FORT DRUM      NOT AVBL
MASSENA        SUNNY     74  52  46 VRB3      29.90F
SARANAC LAKE   SUNNY     74  46  36 CALM      29.91F
PLATTSBURGH    SUNNY     72  46  39 E5        29.91F
$$

NYZ001>004-010>016-019>021-192100-
WEST


CITY           SKY/WX    TMP DP  RH WIND       PRES   REMARKS
NIAGARA FALLS  MOSUNNY   79  63  57 NE8       29.83F
BUFFALO        MOSUNNY   77  57  50 CALM      29.85F
DUNKIRK        SUNNY     75  55  49 W9        29.85F
JAMESTOWN      MOSUNNY   75  59  57 NW6       29.88F
WELLSVILLE     PTSUNNY   76  60  57 W6        29.92S
ROCHESTER      MOSUNNY   77  63  61 N12       29.86R
PENN YAN       PTSUNNY   77  65  66 SE10      29.86F
$$

             KEY
       WCI = WIND CHILL INDEX
       VSB = VISIBILITY
       HX  = HEAT INDEX
$$


USA.gov is the U.S. government's official web portal to all federal, state and local government web resources and services.